THOR ABLESTAR DEB, 244

Orbit data source: Space-Track

THOR ABLESTAR DEB, 244 is space debris in LEO originally from a launch on Thu, 29 Jun 1961 UTC launched from the Air Force Eastern Test Range (AFETR). Debris objects in space refer to the collection of defunct objects orbiting the Earth. Examples of debris include non-operational satellites, rocket bodies, and fragments generated from explosions, collisions, or faulty payload assembly.

Loading next visibility...
Identifier
244, 1961-015BZ
Orbit
LEO
Country
Flag of USUS
Related business
Manufacturer
Unknown
Mission
Spacecraft
Bus & Motor
Unknown
Mass
Unknown
Launch date (UTC)
1961-06-29 (64 years ago)
Launch vehicle
Unknown
Launch site
Air Force Eastern Test Range (AFETR)
Object type
Payload
Rocket body
Debris
Shape & HBR
Unknown
Radar Cross Section
Small (<0.1 m²)

Expand to show TLE details & history
Last TLE update: 15 hours ago

TLE from 15 hours ago
0 THOR ABLESTAR DEB
1 00244U 61015BZ  25259.99829428  .00000102  00000-0  12868-3 0  9998
2 00244  66.8413 180.8087 0076221 277.0678  82.1740 13.95599963261018
Epoch: 2025-09-16T23:57Z
TLE epoch observation values (Epoch: 2025-09-16T23:57:32.625Z)
Latitude
-0.00005°
Longitude
-174.75782°
Altitude
904.008 km
Speed
7.404 km/s
True Right ascension
12h 03m 14s
True Declination
0° 00' 00"
Sunlit
Object was in daylight at epoch
Visualization orbit readout
Latitude
Unknown
Longitude
Unknown
Altitude
Unknown
Speed
Unknown
Apparent Right ascension
Unknown
Apparent Declination
Unknown
Sunlit
N/A
Visualization observer readout
Local Sidereal Time
07:46:04
Azimuth
Unknown
Elevation
Unknown
Doppler factor
Unknown
Orbital elements
Apogee altitude
962.988 km
Perigee altitude
851.925 km
Semi-major axis
7,285.594 km
Eccentricity
0.00762
Inclination
66.8413°
RAAN
180.8087°
Arg. of periapsis
277.0678°
True anomaly
83.04038°
Mean anomaly
82.174°
Eccentric anomaly
82.60708°
Mean motion
3.49016 °/min
Orbital period
103.15 mins
BSTAR
0.00012868
Loading maneuver chart data...
Computing Atmospheric mass density...

Documentation

Showing up to 5 results
|